CAPE
0 0 0 0 0 0 0 0 0 0 0 0 0 0 0 0 0 0 0 0 0 0
0 0 0 0 0 0 0 0 0 0 0 0 0 0 0 0 0 0 0 0 0 0
0 0 0 0 0 0 0 0 0 0 0 0 0 0 0 0 0 0 0 0 0 0
0 0 0 0 0 0 0 0 0 0 0 0 0 0 0 0 0 0 0 0 0 0
0 0 0 0 0 0 0 0 0 0 0 0 0 0 0 0 0 0 0 0 0 0
0 0 0 0 0 0 0 0 0 0 0 0 0 0 0 0 0 0 0 0 0 0
0 0 0 0 0 0 0 0 0 0 0 0 0 0 0 0 0 0 0 0 0 0
0 0 0 0 0 0 0 0 0 0 0 0 0 0 0 0 0 0 0 0 0 0
0 0 0 0 0 0 0 0 0 0 0 0 0 0 0 0 0 0 0 0 0 0
0 0 0 0 0 0 0 0 0 0 0 0 0 0 0 0 0 0 0 0 0 0
0 0 0 0 0 0 0 0 0 0 0 0 0 0 0 0 0 0 0 0 0 0
0 0 0 0 0 0 0 0 0 0 0 0 0 0 0 0 0 0 0 0 0 0
0 0 0 0 0 0 0 0 0 0 0 0 0 0 0 0 0 0 0 0 0 0
0 0 0 0 0 0 0 0 0 0 0 0 0 0 0 0 0 0 0 0 0 0
CIN
0 0 0 0 0 0 0 0 0 0 0 0 0 0 0 0 0 0 0 0 0 0
0 0 0 0 0 0 0 0 0 0 0 0 0 0 0 0 0 0 0 0 0 0
0 0 0 0 0 0 0 0 0 0 0 0 0 0 0 0 0 0 0 0 0 0
0 0 0 0 0 0 0 0 0 0 0 0 0 0 0 0 0 0 0 0 0 0
0 0 0 0 0 0 0 0 0 0 0 0 0 0 0 0 0 0 0 0 0 0
0 0 0 0 0 0 0 0 0 0 0 0 0 0 0 0 0 0 0 0 0 0
0 0 0 0 0 0 0 0 0 0 0 0 0 0 0 0 0 0 0 0 0 0
0 0 0 0 0 0 0 0 0 0 0 0 0 0 0 0 0 0 0 0 0 0
0 0 0 0 0 0 0 0 0 0 0 0 0 0 0 0 0 0 0 0 0 0
0 0 0 0 0 0 0 0 0 0 0 0 0 0 0 0 0 0 0 0 0 0
0 0 0 0 0 0 0 0 0 0 0 0 0 0 0 0 0 0 0 0 0 0
0 0 0 0 0 0 0 0 0 0 0 0 0 0 0 0 0 0 0 0 0 0
0 0 0 0 0 0 0 0 0 0 0 0 0 0 0 0 0 0 0 0 0 0
0 0 0 0 0 0 0 0 0 0 0 0 0 0 0 0 0 0 -3 0 0 0
Wind_Speed
4 3 1 4 7 11 14 17 20 23 25 27 28 29 30 30 32 32 34 35 36 36
3 2 2 5 9 12 15 18 21 24 26 28 29 31 31 32 34 35 35 37 37 37
3 3 4 7 10 13 16 19 22 25 28 29 31 32 33 34 35 36 38 38 39 39
3 4 6 8 11 14 18 21 24 27 29 31 33 33 35 35 36 39 40 40 41 42
3 5 7 10 13 16 19 22 25 28 30 32 34 35 36 37 38 41 42 43 43 44
5 6 9 12 14 17 20 24 27 29 32 34 35 36 36 38 40 41 42 43 44 45
6 8 10 13 16 19 22 25 28 30 32 34 35 36 37 38 39 40 41 43 44 45
7 9 11 15 17 20 23 26 29 31 33 35 36 37 38 38 39 40 42 43 43 43
7 10 13 15 18 21 25 28 30 32 35 37 37 37 39 39 39 40 43 44 44 44
8 11 14 17 20 23 26 29 31 33 35 37 38 38 39 40 39 41 43 44 46 47
9 13 15 18 21 24 27 30 32 34 36 38 38 39 40 40 40 41 42 44 45 47
11 13 16 20 23 25 28 30 33 34 37 38 38 39 41 42 41 43 45 44 44 44
12 15 18 20 23 26 28 31 33 36 36 37 38 40 41 42 42 46 46 44 44 43
14 16 18 21 24 26 30 33 34 35 36 37 39 40 42 42 44 46 48 48 46 43
Wind_Direction
185 185 233 320 331 333 337 340 343 345 347 346 346 345 343 342 341 340 338 337 336 335
204 209 285 323 332 336 339 341 343 345 344 344 344 342 342 340 338 338 338 336 336 334
234 280 315 326 331 337 340 341 342 342 342 342 342 341 340 338 338 337 336 336 335 334
262 302 323 331 336 337 338 340 340 341 340 341 340 340 339 339 338 336 335 335 334 333
283 313 327 332 334 336 337 339 339 340 340 340 339 339 339 338 337 336 334 334 334 333
295 316 325 329 332 335 337 338 339 339 338 338 339 339 338 338 337 336 336 336 335 334
303 318 325 330 333 334 337 338 338 339 338 339 339 339 338 338 337 337 338 337 336 335
311 323 328 330 333 337 338 338 338 338 339 339 339 339 338 338 338 338 337 338 338 338
318 324 328 333 335 336 336 337 338 338 338 338 339 339 338 338 338 338 338 338 338 337
324 330 332 333 334 335 336 337 338 339 339 339 339 339 339 339 339 338 338 337 337 337
330 330 333 334 335 336 337 338 338 338 339 339 340 340 340 339 339 338 338 338 337 337
333 334 336 335 336 338 338 339 339 339 339 339 340 341 340 340 339 338 337 338 338 338
342 339 338 339 339 340 340 339 340 339 341 341 341 342 341 341 340 338 339 340 340 341
347 345 344 343 342 342 340 340 340 341 343 343 343 343 342 342 341 340 339 339 340 341